Location: Young's Pond
(41.2695°N, 72.7766°W)
Time: 14:49:59
(UTC-05:00)

Daily predictions for brighter satellites

Satellite Brightness Start Highest point End
(mag) Time Altitude Azimuth Time Altitude Azimuth Time Altitude Azimuth
Nadezhda 1 Rocket 4.3 16:45:10 10° SSW 16:51:13 71° W 16:57:20 10° N
GEOS 3 Rocket 4.5 16:47:27 10° E 16:51:46 28° NE 16:56:06 10° NNW
Cosmos 2341 Rocket 4.0 16:48:39 10° N 16:54:50 65° E 17:00:59 10° SSE
SL-27 R/B 4.1 16:52:27 10° NNE 16:54:52 16° ENE 16:57:15 10° ESE
Cosmos 1455 Rocket 4.4 16:54:51 10° NNE 16:58:03 19° ENE 17:01:15 10° ESE
CORIOLIS 4.4 16:55:00 10° SE 17:00:10 49° ENE 17:05:22 10° N
BREEZE-M DEB (TANK) 3.8 16:53:37 10° WNW 17:01:46 83° SW 17:05:31 10° SE
COSMOS 2406 3.3 16:56:46 10° NNW 17:02:23 55° ENE 17:08:00 10° SE
Cosmos 1048 Rocket 4.0 16:57:13 10° NNW 17:02:32 72° ENE 17:07:52 10° SSE
ISS -2.4 17:00:14 10° SSW 17:03:16 35° SE 17:06:08 11° ENE
Cosmos 2278 Rocket 3.6 17:00:49 10° SE 17:04:29 18° E 17:08:10 10° ENE
Cosmos 158 Rocket 4.2 17:00:39 10° N 17:05:56 53° ENE 17:11:04 10° SE
Meteor 1-5 Rocket 4.1 17:08:00 10° N 17:13:21 62° ENE 17:18:49 10° SSE
SPOT 3 Rocket 3.5 17:11:30 10° SSE 17:16:42 81° ENE 17:21:54 10° NNW
CZ-2C R/B 2.4 17:11:53 10° SSE 17:16:47 78° ENE 17:21:52 10° N
Cosmos 1484 Rocket 3.5 17:17:14 10° SE 17:20:33 29° ENE 17:23:49 10° N
Cosmos 1238 Rocket 3.0 17:21:14 10° SSE 17:23:52 28° E 17:25:31 17° NE
ASTRO F (AKARI) 4.3 17:24:06 10° NNE 17:27:13 56° E 17:30:17 10° S
BREEZE M DEB (TANK) 4.1 17:18:15 10° SSW 17:28:06 35° SSE 17:30:49 17° E
CRYOSAT 2 4.4 17:23:29 10° N 17:28:25 89° E 17:33:19 10° S
Cosmos 2082 Rocket 3.7 17:25:17 10° NNE 17:28:27 15° NE 17:28:55 15° NE
IDEFIX/ARIANE 42P 2.7 17:25:33 10° S 17:30:45 82° WSW 17:35:59 10° NNW
COSMOS 2441 4.4 17:29:44 10° SSE 17:34:30 61° ENE 17:39:20 10° N
USA 32 3.9 17:30:08 10° S 17:35:21 76° E 17:40:35 10° N
Cosmos 1833 Rocket 4.3 17:33:41 10° NNE 17:36:28 15° NE 17:36:28 15° NE
BREEZE M DEB (TANK) 3.8 17:36:00 10° NW 17:38:58 32° NNE 17:42:21 20° ENE
Cosmos 1536 4.2 17:35:48 10° NNW 17:39:39 43° W 17:43:31 10° SSW
Okean 1 3.9 17:36:19 10° SSE 17:39:59 34° E 17:42:07 20° NE
COSMO-SKYMED 1 2.7 17:39:25 10° NNE 17:43:40 52° E 17:47:54 10° S
Meteor 1-18 Rocket 4.2 17:38:26 10° S 17:43:55 60° E 17:49:32 10° NNE
Cosmos 1544 Rocket 3.5 17:41:46 10° N 17:46:15 81° E 17:50:42 10° S
USA 234 4.2 17:42:38 12° NE 17:48:10 40° NNW 17:54:09 10° W
Cosmos 1975 Rocket 4.1 17:44:48 10° SSW 17:48:55 45° WNW 17:53:05 10° N
SL-24 DEB 4.2 17:44:48 10° N 17:49:33 66° E 17:54:14 10° S
MSX 3.9 17:43:59 10° SSE 17:49:45 84° WSW 17:55:33 10° NNW
SMAP 4.2 17:46:40 10° S 17:51:07 47° W 17:55:38 10° NNW
Meteor 1-28 Rocket 3.7 17:54:50 36° E 17:55:11 37° E 17:58:44 10° SSE
Cosmos 2263 Rocket 4.5 17:52:37 10° W 17:56:31 19° NW 18:00:27 10° N
CZ-3B DEB 2.2 17:55:29 10° SW 17:59:13 88° SE 18:05:05 21° NE
CZ-4 R/B 3.9 17:56:07 10° SSW 17:59:37 26° W 18:03:08 10° NW
NOAA 12 4.3 17:55:29 10° SE 18:00:30 46° ENE 18:05:32 10° N
NOSS 3-3 (A) 4.2 17:55:54 10° S 18:01:48 51° ESE 18:04:55 28° ENE
NOSS 3-3 (C) 4.2 17:56:00 10° S 18:01:54 50° ESE 18:04:58 29° ENE
Cosmos 1346 Rocket 3.4 17:59:53 10° SSE 18:02:56 36° ESE 18:02:56 36° ESE
Cosmos 1536 Rocket 3.5 18:00:53 10° S 18:05:20 82° E 18:09:13 14° N
Cosmos 494 Rocket 3.9 18:01:34 10° NNW 18:06:49 78° ENE 18:12:04 10° SSE
Cosmos 1812 2.9 18:05:16 10° SSW 18:09:06 70° W 18:12:08 16° N
ATLAS 2AS CENTAUR R/B 3.0 18:02:44 10° NW 18:10:53 86° NE 18:18:27 10° SE
Meteor 1-12 Rocket 4.3 18:06:34 10° N 18:12:21 87° W 18:18:13 10° S
Cosmos 2251 Rocket 3.6 18:08:02 10° NNW 18:13:25 80° WSW 18:18:43 10° SSE
Meteor 2-21 Rocket 4.4 18:12:26 10° N 18:18:34 57° E 18:24:36 10° SSE
Cosmos 2366 rocket 4.5 18:13:19 10° NNW 18:19:36 64° W 18:25:49 10° S
Cosmos 1975 2.8 18:15:54 10° N 18:20:00 83° W 18:24:03 10° S
Cosmos 1844 Rocket 3.6 18:17:24 10° SW 18:22:44 46° WNW 18:27:29 13° N
OTV 4 2.5 18:21:04 10° WSW 18:23:24 22° SSW 18:23:24 22° SSW
Meteor 2-16 Rocket 4.5 18:19:09 10° N 18:25:05 52° ENE 18:30:59 10° SSE
Timation 2 Rocket 4.3 18:20:10 10° NNW 18:26:45 49° ENE 18:28:08 43° E
GEOS 3 Rocket 4.2 18:24:33 10° SSE 18:29:34 56° WSW 18:34:36 10° NW
Cosmos 1844 4.3 18:24:15 10° SW 18:29:41 53° WNW 18:33:29 20° N
Cosmos 2297 4.1 18:24:50 10° S 18:29:31 43° SE 18:29:31 43° SE
SL-27 R/B 4.4 18:26:54 10° NW 18:30:13 32° WSW 18:33:29 10° SSW
Meteor 1-19 Rocket 4.2 18:29:45 10° S 18:35:18 58° E 18:35:18 58° E
Cosmos 1241 Rocket 4.4 18:29:28 10° NNW 18:36:09 81° ENE 18:39:45 29° SE
SL-8 R/B 3.7 18:34:33 10° SW 18:39:03 71° S 18:39:03 71° S
ISS -1.3 18:36:47 10° W 18:38:49 26° WNW 18:38:49 26° WNW
BREEZE-M R/B 3.6 18:37:41 10° WSW 18:47:01 78° NNW 18:47:38 68° NNE
Cosmos 2239 Rocket 4.3 18:41:32 10° N 18:47:46 71° E 18:53:54 10° SSE
Cosmos 2278 Rocket 2.5 18:42:24 10° SW 18:47:59 63° WNW 18:50:04 38° N
Meteor 1-13 Rocket 4.1 18:43:17 10° S 18:48:54 88° WNW 18:50:26 51° N
Cosmos 1821 Rocket 4.0 18:49:23 10° N 19:01:31 10° SSE 19:01:36 10° SSE
Cosmos 2082 Rocket 3.3 19:07:42 10° NNW 19:10:50 34° NNW 19:10:50 34° NNW
Cosmos 1833 Rocket 4.3 19:15:55 10° NNW 19:18:13 25° NNW 19:18:13 25° NNW
FALCON 9 R/B 3.9 19:52:00 10° W 20:01:52 40° SW 20:01:52 40° SW
CZ-3B DEB 4.5 20:30:07 10° WNW 20:34:11 34° NW 20:34:11 34° NW
